Погода в Маче

Россия / Республика Саха (Якутия)     59°54′22″N   117°34′59″E
темп.,
°C
ветер,
м/с
пор.,
м/с
влажн.,
%
обл.,
%
осадки,
мм/ч
давл.,
гПа
погр.,
м
3 марта, ср
ср300:00−26всв1198100 0.1 101821
03:00−26с1199100 0.1 101819
06:00−27ссз2299100 0.2 101935
09:00−28ссз2398100 0.3 1020145
12:00−26ссз2394100 0.1 1020370
15:00−24ссз3492100 0.2 1020486
18:00−24ссз3594100 0.1 1022523
21:00−27ссз2598100 0.1 1025169
4 марта, чт
чт400:00−31ссз2298100 0.1 102832
03:00−35с1110098 0.1 103019
06:00−36з1110089 0.0 103219
09:00−35зюз119889 0.0 103419
12:00−27зсз388666 0.0 1035666
15:00−24зсз698083 0.0 10351006
18:00−25зсз51082100 0.0 1036828
21:00−30з368972 0.0 1038111
5 марта, пт
пт500:00−32з23890 0.0 104068
03:00−34зюз12880 0.0 104119
06:00−35ююз12830 0.0 104119
09:00−33ююз22820 0.0 104126
12:00−25ююз23740 0.0 1038311
15:00−20ююз247318 0.0 1035588
18:00−21ю238531 0.0 103342
21:00−27ю238324 0.0 103227
6 марта, сб
сб600:00−28ююв23820 0.0 103023
03:00−26ююв228342 0.0 102955
06:00−27юв228392 0.0 102732
09:00−24юв228796 0.0 102590
12:00−18юв2392100 0.1 1022241
15:00−13юв2389100 0.1 1019376
18:00−12в2294100 0.0 1018106
21:00−15юв2296100 0.1 101856
7 марта, вс
вс700:00−15ююв2297100 0.1 101657
03:00−14ююв2296100 0.2 101637
06:00−13ююв2396100 0.4 101691
09:00−11ююз2989100 0.6 1016300
12:00−5з597796 0.0 10151097
15:00−4з477497 0.1 10141299
18:00−7ю128297 0.1 101228
21:00−10ююв238699 0.1 101232